Regional Weather Roundup
Issued by NWS Goodland, KS

Home | Current Version | Previous Version | Text Only | Print | Product List | Glossary Off
Versions: 1 2 3 4 5 6 7 8 9 10 11 12 13 14 15 16 17 18 19 20 21 22 23 24 25 26 27 28 29 30 31 32 33 34 35 36 37 38 39 40 41 42 43 44 45 46 47 48 49 50

000
ASUS43 KGLD 231908
RWRGLD

GOODLAND FORECAST AREA HOURLY WEATHER ROUNDUP
NATIONAL WEATHER SERVICE GOODLAND KS
100 PM MDT WED APR 23 2014

...OFFICIAL OBSERVATIONS...

CITY           SKY/WX    TMP DP  RH WIND       PRES   REMARKS
GOODLAND KS    CLOUDY    79  32  18 W13       29.57S
HILL CITY KS   PTSUNNY   85  49  28 SW26G37   29.55F
IMPERIAL NEB   PTSUNNY   76  39  26 N24G33    29.57F
MCCOOK NEB     CLOUDY    79  44  28 W14G23    29.54S
AKRON CO       SUNNY     70  37  29 N20G28    29.63S
BURLINGTON CO  PTSUNNY   81  25  12 SW18G25   29.58F
LIMON CO       MOSUNNY   74  22  14 SW14G22   29.62F
$$

...UNOFFICIAL OBSERVATIONS...

CITY           SKY/WX    TMP DP  RH WIND       PRES   REMARKS
COLBY KS       SUNNY     82  43  24 SW17G25   29.57S
LENORA KS        N/A     82  32  16 S25         N/A
LEOTI KS         N/A     80  32  17 W7          N/A
NORTON KS      SUNNY     77  45  31 SW20G26   29.54F
OBERLIN KS     FAIR      79  43  27 SW15      29.54F
SHARON SPRINGS   N/A     80  37  21 S20G30      N/A
ST FRANCIS KS  PTSUNNY   75  32  20 N18       29.57F
WAKEENEY KS      N/A     85  46  25 MISG        N/A
TRENTON NEB      N/A     72  32  23 N14         N/A
KIT CARSON CO    N/A     80  30  16 MISG        N/A
WRAY CO        FAIR      77  34  20 N20G29    29.59
$$



USA.gov is the U.S. government's official web portal to all federal, state and local government web resources and services.